Starlink 35781

operational
NORAD ID: 67110 Int'l Des: 2025-299 Owner: SPXS Country: US Constellation: starlink
LEOCIRCULAR

Über Starlink 35781

Beschreibung wird geladen...

Live-Position

3D-Globus wird geladen...

Nächste Überflüge

Höhenverlauf

Altitude vs Time

uPlot chart will show altitude changes over time

Zweizeiliger Elementsatz

1 67110C 25299J 25349.46090278 .00310160 00000+0 49032-3 0 3491
2 67110 43.0013 301.3012 0007221 267.7933 127.0755 16.02468183 14
Epoch: 15. Dez. 2025 • Age: 64 hours

Aktueller Status

Höhe 271.2 km
Geschwindigkeit 7.75 km/s
Subsatellitenpunkt 43.13°N, 59.25°E
Startdatum 15. Dez. 2025
Alter 2 days
Typ internet

Technische Details

Klassifizierung Payload
Masse 575.00 kg
Trockenmasse 530.00 kg
Gesamtmasse 575.00 kg
Länge 0.30 m
Durchmesser 4.10 m
Spannweite 29.00 m
Form Box + pan
Hersteller SPXS
Bus-Typ Starlink V2MO
Phasenstatus In Orbit
Besitzer/Staat SPXS/US

Große Konstellationen

Loading constellations...